Location: Dziadowski
(50.3833°N, 20.0333°E)
Time: 18:36:26
(UTC+00:00)

Nadezhda 3 Rocket - Pass Details

Date: 18 January 2026
Orbit: 956 x 997 km, 82.9° (Epoch: 18 February)

Event Time Altitude Azimuth Distance (km) Brightness Sun altitude
Rises 03:43:07 0° 351° (N) 3,677 6.9 -26.3°
Reaches altitude 10° 03:45:39 10° 354° (N) 2,732 6.3 -25.9°
Maximum altitude 03:51:54 70° 78° (ENE) 1,044 4.2 -24.9°
Drops below altitude 10° 03:58:10 10° 162° (SSE) 2,742 6.6 -23.9°
Sets 04:00:43 0° 165° (SSE) 3,691 7.3 -23.5°
